GW2778 Weather Reports


time (UTC)temp
C
wind
direction
speed
KPH
gust
KPH
rain 1hr
cm
rain 24hr
cm
rain mn
cm
humidity
%
barometer
mb
20260504231716 19 87 3.2 3.2 0.00 0.00 0.00 47 1004.7
20260504231213 19 181 4.8 6.4 0.00 0.00 0.00 46 1004.6
20260504230709 20 171 3.2 4.8 0.00 0.00 0.00 47 1004.6
20260504230208 20 220 6.4 9.7 0.00 0.00 0.00 46 1004.5
20260504225706 20 179 4.8 4.8 0.00 0.00 0.00 45 1004.5
20260504225202 20 185 4.8 6.4 0.00 0.00 0.00 45 1004.7
20260504224659 20 165 6.4 6.4 0.00 0.00 0.00 45 1004.3
20260504224156 20 237 4.8 6.4 0.00 0.00 0.00 46 1004.5
20260504223653 20 241 3.2 3.2 0.00 0.00 0.00 46 1004.5
20260504223148 20 260 8.0 11.3 0.00 0.00 0.00 44 1004.5
20260504222646 20 161 9.7 12.9 0.00 0.00 0.00 44 1004.3
20260504222142 20 185 9.7 11.3 0.00 0.00 0.00 43 1004.3
20260504221640 20 193 6.4 6.4 0.00 0.00 0.00 44 1004.5
20260504221137 20 180 4.8 6.4 0.00 0.00 0.00 44 1004.4
20260504220633 20 243 12.9 14.5 0.00 0.00 0.00 43 1004.3
20260504220131 20 177 3.2 4.8 0.00 0.00 0.00 44 1004.5
20260504215627 20 207 8.0 14.5 0.00 0.00 0.00 43 1004.3
20260504215125 20 276 3.2 4.8 0.00 0.00 0.00 44 1004.7
20260504214620 21 190 9.7 12.9 0.00 0.00 0.00 44 1004.4
20260504214117 21 176 9.7 12.9 0.00 0.00 0.00 43 1004.6
20260504213613 20 279 3.2 3.2 0.00 0.00 0.00 44 1004.4
20260504213110 21 267 4.8 4.8 0.00 0.00 0.00 43 1004.7
20260504212606 20 216 4.8 11.3 0.00 0.00 0.00 44 1004.4
20260504212104 20 228 4.8 4.8 0.00 0.00 0.00 45 1004.7
20260504211601 20 239 3.2 4.8 0.00 0.00 0.00 46 1004.4
20260504211057 20 234 1.6 1.6 0.00 0.00 0.00 43 1004.5
20260504210555 21 10 1.6 3.2 0.00 0.00 0.00 46 1004.5
20260504210051 21 267 3.2 4.8 0.00 0.00 0.00 42 1004.6
20260504205549 20 127 4.8 9.7 0.00 0.00 0.00 43 1004.6
20260504205047 20 220 9.7 16.1 0.00 0.00 0.00 43 1004.8
20260504204544 20 250 9.7 12.9 0.00 0.00 0.00 43 1004.8
20260504204044 20 76 4.8 6.4 0.00 0.00 0.00 45 1004.7
20260504203541 20 214 16.1 22.5 0.00 0.00 0.00 41 1004.7
20260504203038 21 137 8.0 11.3 0.00 0.00 0.00 43 1004.7
20260504202533 20 304 8.0 9.7 0.00 0.00 0.00 43 1004.7
20260504202031 20 271 6.4 11.3 0.00 0.00 0.00 41 1004.9
20260504201527 20 79 3.2 3.2 0.00 0.00 0.00 43 1005.0
20260504201026 20 234 14.5 16.1 0.00 0.00 0.00 42 1005.1
20260504200521 21 169 3.2 3.2 0.00 0.00 0.00 43 1005.3
20260504200019 21 190 6.4 6.4 0.00 0.00 0.00 41 1005.3
20260504195515 20 268 1.6 1.6 0.00 0.00 0.00 45 1005.3
20260504195011 20 274 9.7 11.3 0.00 0.00 0.00 43 1005.4
20260504194508 20 200 4.8 4.8 0.00 0.00 0.00 43 1005.3
20260504194003 19 193 9.7 11.3 0.00 0.00 0.00 43 1005.3
20260504193500 19 223 4.8 6.4 0.00 0.00 0.00 44 1005.6
20260504192959 19 192 4.8 4.8 0.00 0.00 0.00 44 1005.4
20260504192456 20 165 9.7 12.9 0.00 0.00 0.00 43 1005.6
20260504191955 20 265 8.0 11.3 0.00 0.00 0.00 43 1005.6
20260504191452 19 245 6.4 9.7 0.00 0.00 0.00 43 1005.6
20260504190947 19 159 6.4 11.3 0.00 0.00 0.00 43 1005.8
20260504190444 20 272 9.7 11.3 0.00 0.00 0.00 42 1005.9
20260504185940 20 275 11.3 12.9 0.00 0.00 0.00 42 1005.7
20260504185438 19 128 3.2 3.2 0.00 0.00 0.00 47 1005.7
20260504184934 18 165 11.3 20.9 0.00 0.00 0.00 44 1005.8
20260504184429 19 332 6.4 11.3 0.00 0.00 0.00 45 1006.3
20260504183925 19 166 4.8 11.3 0.00 0.00 0.00 44 1006.3
20260504183423 19 306 3.2 4.8 0.00 0.00 0.00 45 1005.9
20260504182921 19 218 6.4 11.3 0.00 0.00 0.00 44 1006.0
20260504182417 18 99 3.2 3.2 0.00 0.00 0.00 44 1005.6
20260504181914 18 143 3.2 4.8 0.00 0.00 0.00 46 1006.4
20260504181412 18 182 12.9 16.1 0.00 0.00 0.00 43 1006.4
20260504180910 18 271 4.8 9.7 0.00 0.00 0.00 44 1006.4
20260504180409 18 274 8.0 11.3 0.00 0.00 0.00 44 1006.6
20260504175907 19 146 9.7 12.9 0.00 0.00 0.00 42 1006.6
20260504175403 18 277 1.6 3.2 0.00 0.00 0.00 49 1006.4
20260504174901 18 194 4.8 6.4 0.00 0.00 0.00 44 1006.6
20260504174358 18 299 1.6 3.2 0.00 0.00 0.00 46 1006.3
20260504173855 18 311 4.8 4.8 0.00 0.00 0.00 44 1006.4
20260504173352 18 108 4.8 6.4 0.00 0.00 0.00 46 1006.6
20260504172849 18 153 11.3 16.1 0.00 0.00 0.00 44 1006.7
20260504172346 18 220 6.4 12.9 0.00 0.00 0.00 45 1006.8
20260504171841 18 174 3.2 6.4 0.00 0.00 0.00 44 1007.0
20260504171339 18 198 12.9 17.7 0.00 0.00 0.00 44 1006.6
20260504170836 17 157 6.4 9.7 0.00 0.00 0.00 47 1006.9
20260504170332 18 246 8.0 11.3 0.00 0.00 0.00 44 1007.0
20260504160251 16 157 11.3 12.9 0.00 0.00 0.00 46 1007.9
20260504150716 17 288 24.1 30.6 0.00 0.00 0.00 42 1008.2
20260504150213 16 152 6.4 9.7 0.00 0.00 0.00 43 1008.6
20260504141142 15 275 8.0 11.3 0.00 0.00 0.00 42 1008.2
20260504140639 15 250 6.4 11.3 0.00 0.00 0.00 41 1008.3
20260504140134 14 157 6.4 6.4 0.00 0.00 0.00 44 1008.3
20260504130603 11 295 0.0 1.6 0.00 0.00 0.00 51 1009.1
20260504110451 5 359 0.0 0.0 0.00 0.00 0.00 79 1009.1
20260504100407 0 356 0.0 0.0 0.00 0.00 0.00 95 1009.2
20260504081800 0 355 0.0 0.0 0.00 0.00 0.00 93 1009.4
20260504081256 0 355 0.0 0.0 0.00 0.00 0.00 92 1009.5
20260504080753 1 355 0.0 0.0 0.00 0.00 0.00 92 1009.3
20260504080250 0 354 0.0 0.0 0.00 0.00 0.00 92 1009.1
20260504070217 1 356 0.0 0.0 0.00 0.00 0.00 89 1009.3
20260504060138 1 332 0.0 0.0 0.00 0.00 0.00 89 1009.4
20260504050606 2 330 0.0 0.0 0.00 0.00 0.00 87 1009.2
20260504050103 2 335 0.0 0.0 0.00 0.00 0.00 87 1009.3
20260504045600 2 337 0.0 0.0 0.00 0.00 0.00 87 1009.5
20260504045055 2 337 0.0 0.0 0.00 0.00 0.00 87 1009.3
20260504044553 2 328 0.0 0.0 0.00 0.00 0.00 86 1009.4
20260504044049 2 328 0.0 0.0 0.00 0.00 0.00 86 1009.3
20260504043547 1 335 0.0 0.0 0.00 0.00 0.00 87 1009.4
20260504043044 1 334 0.0 0.0 0.00 0.00 0.00 87 1009.3
20260504042541 2 339 0.0 0.0 0.00 0.00 0.00 87 1009.6
20260504042038 2 339 0.0 0.0 0.00 0.00 0.00 86 1009.5
20260504041533 2 343 0.0 0.0 0.00 0.00 0.00 86 1009.5
20260504041030 2 325 0.0 0.0 0.00 0.00 0.00 85 1009.2
20260504040527 2 325 0.0 0.0 0.00 0.00 0.00 85 1009.3
20260504040024 2 325 0.0 0.0 0.00 0.00 0.00 85 1009.2
20260504035521 2 325 0.0 0.0 0.00 0.00 0.00 84 1009.3
20260504035017 2 325 0.0 0.0 0.00 0.00 0.00 83 1009.1
20260504034515 2 325 0.0 0.0 0.00 0.00 0.00 83 1009.0
20260504034012 2 325 0.0 0.0 0.00 0.00 0.00 84 1009.0
20260504033510 2 325 0.0 0.0 0.00 0.00 0.00 84 1008.8
20260504033007 3 325 0.0 0.0 0.00 0.00 0.00 83 1008.9
20260504032503 3 325 0.0 0.0 0.00 0.00 0.00 83 1009.0
20260504032000 3 325 0.0 0.0 0.00 0.00 0.00 82 1009.0
20260504031456 3 325 0.0 0.0 0.00 0.00 0.00 82 1008.7
20260504030954 3 325 0.0 0.0 0.00 0.00 0.00 80 1009.0
20260504030451 3 325 0.0 0.0 0.00 0.00 0.00 80 1008.7
20260504025946 3 325 0.0 0.0 0.00 0.00 0.00 81 1008.7
20260504025444 3 325 0.0 0.0 0.00 0.00 0.00 80 1008.9
20260504024941 3 325 0.0 0.0 0.00 0.00 0.00 79 1008.9
20260504024438 3 325 0.0 0.0 0.00 0.00 0.00 78 1008.9
20260504023935 4 325 0.0 0.0 0.00 0.00 0.00 77 1009.0
20260504023431 4 325 0.0 0.0 0.00 0.00 0.00 76 1008.9
20260504022927 4 325 0.0 0.0 0.00 0.00 0.00 77 1008.8
20260504022423 5 325 0.0 0.0 0.00 0.00 0.00 76 1008.9
20260504021920 5 327 0.0 0.0 0.00 0.00 0.00 75 1008.7
20260504021417 5 321 0.0 0.0 0.00 0.00 0.00 75 1008.8
20260504020915 5 315 0.0 0.0 0.00 0.00 0.00 75 1009.0
20260504020411 5 335 0.0 0.0 0.00 0.00 0.00 74 1008.9
20260504015908 5 337 0.0 0.0 0.00 0.00 0.00 73 1009.0
20260504015404 5 334 0.0 0.0 0.00 0.00 0.00 74 1008.6
20260504014900 5 328 0.0 0.0 0.00 0.00 0.00 72 1009.0
20260504014356 5 324 0.0 0.0 0.00 0.00 0.00 72 1008.9
20260504013853 5 286 0.0 0.0 0.00 0.00 0.00 70 1008.9
20260504013351 6 322 0.0 0.0 0.00 0.00 0.00 69 1008.8
20260504012847 6 323 0.0 0.0 0.00 0.00 0.00 68 1008.7
20260504012345 6 322 0.0 0.0 0.00 0.00 0.00 67 1008.9
20260504011843 6 324 0.0 0.0 0.00 0.00 0.00 66 1008.8
20260504011339 6 322 0.0 0.0 0.00 0.00 0.00 64 1008.9
20260504010835 7 324 0.0 0.0 0.00 0.00 0.00 64 1008.7
20260504010331 7 312 0.0 0.0 0.00 0.00 0.00 62 1008.6
20260504005828 7 338 0.0 0.0 0.00 0.00 0.00 61 1008.4
20260504005324 8 317 0.0 0.0 0.00 0.00 0.00 59 1008.8
20260504004822 8 317 0.0 0.0 0.00 0.00 0.00 55 1008.4
20260504004320 9 303 0.0 0.0 0.00 0.00 0.00 53 1008.3
20260504003816 10 303 0.0 0.0 0.00 0.00 0.00 50 1008.4
20260504003313 10 291 1.6 1.6 0.00 0.00 0.00 48 1008.3
20260504002809 10 271 3.2 4.8 0.00 0.00 0.00 47 1008.2
20260504002306 10 320 0.0 0.0 0.00 0.00 0.00 48 1008.3
20260504001804 11 291 1.6 3.2 0.00 0.00 0.00 46 1008.3
20260504001301 11 275 3.2 3.2 0.00 0.00 0.00 45 1007.9
20260504000758 11 296 6.4 9.7 0.00 0.00 0.00 45 1007.7
20260504000254 11 210 9.7 14.5 0.00 0.00 0.00 44 1008.0
20260503235753 11 306 1.6 1.6 0.00 0.00 0.00 44 1008.0
20260503235250 11 218 4.8 6.4 0.00 0.00 0.00 43 1008.1
20260503234747 11 345 3.2 6.4 0.00 0.00 0.00 43 1007.9
20260503234245 12 295 3.2 4.8 0.00 0.00 0.00 43 1007.8
20260503233742 12 274 3.2 3.2 0.00 0.00 0.00 43 1007.8
20260503233237 12 325 8.0 11.3 0.00 0.00 0.00 42 1007.8
20260503232729 12 228 4.8 6.4 0.00 0.00 0.00 42 1007.8
20260503232226 12 259 4.8 4.8 0.00 0.00 0.00 42 1007.8